#timestamp,LO_Frequency,Hit,StdDev 
1514880015.0,286046998.8,N
1514880015.9,286046998.8,N
1514880035.8,286046998.7,N
1514880055.6,286046996.6,N
1514880075.4,286046998.2,N
1514880095.3,286047001.2,N
1514880115.1,286046999.6,N
1514880135.8,286046998.1,N
1514880155.7,286047002.8,N
1514880175.5,286046998.5,N
1514880195.4,286046998.1,N
1514880215.2,286047001.0,N
1514880235.0,286047002.5,N
1514880235.9,286047002.5,N
1514880255.8,286046998.6,N
1514880275.6,286046999.5,N
1514880295.4,286046998.9,N
1514880315.3,286046996.8,N
1514880335.1,286046996.9,N
1514880355.9,286046998.3,N
1514880375.7,286046999.6,N
1514880395.5,286046998.6,N
1514880415.4,286047001.2,N
1514880435.2,286047011.9,Y
1514880455.1,286046999.8,P
1514880456.0,286046999.8,N
1514880475.8,286047001.3,P
1514880495.6,286047003.3,Y
1514880515.5,286047003.2,P
1514880535.3,286047001.5,N
1514880555.1,286047004.4,P
1514880575.9,286047002.0,N
1514880595.1,286047001.9,N
1514880596.0,286047001.9,N
1514880615.8,286047006.0,Y
1514880635.7,286047005.9,P
1514880655.5,286047006.3,P
1514880675.3,286047006.0,P
1514880695.2,286047007.1,Y
1514880715.0,286046998.1,P
1514880715.9,286046998.1,N
1514880735.8,286046998.4,N
1514880755.6,286046996.6,N
1514880775.4,286047000.7,N
1514880795.3,286046998.5,N
1514880815.1,286046998.9,N
1514880835.9,286046997.8,N
1514880855.7,286046997.7,N
1514880875.5,286046996.7,N
1514880895.4,286047000.9,N
1514880915.2,286047001.7,N
1514880935.0,286047000.1,N
1514880935.9,286047000.1,N
1514880955.8,286047000.8,N
1514880975.6,286046999.3,N
1514880995.5,286046999.0,N
1514881015.3,286046996.8,N
1514881035.1,286046997.6,N
1514881055.9,286046995.4,N
1514881075.7,286046998.5,N
1514881095.5,286047000.0,N
1514881115.4,286046998.5,N
1514881135.2,286046997.7,N
1514881155.1,286046999.1,N
1514881156.0,286046999.1,N
1514881175.8,286046997.0,N
1514881195.6,286046997.3,N
1514881215.5,286046997.1,N
1514881235.3,286046999.5,N
1514881255.2,286046997.0,N
1514881275.9,286046999.6,N
1514881295.7,286046999.3,N
1514881315.6,286046995.1,Y
1514881335.4,286046998.0,P
1514881355.2,286046999.5,N
1514881375.1,286046999.7,N
1514881376.0,286046999.7,N
1514881395.8,286047003.1,Y
1514881415.7,286047006.4,P
1514881435.5,286047003.5,N
1514881455.3,286047002.4,N
1514881475.2,286047001.6,N
1514881495.0,286047005.6,N
1514881495.9,286047005.6,N
1514881515.8,286047005.9,N
1514881535.6,286047001.3,N
1514881555.4,286047002.6,N
1514881575.3,286047002.5,N
1514881595.1,286047000.1,N
1514881615.8,286047000.4,N
1514881635.7,286046998.5,N
1514881655.5,286047000.0,N
1514881675.3,286047001.2,N
1514881695.2,286046999.9,N
1514881715.0,286047000.8,N
1514881715.9,286047000.8,N
1514881735.8,286046996.6,N
1514881755.6,286046998.4,N
1514881775.4,286047000.6,N
1514881795.3,286047002.4,N
1514881815.4,286047002.6,N
1514881835.2,286047002.1,N
1514881855.0,286047003.1,N
1514881855.9,286047003.1,N
1514881875.8,286047006.0,N
1514881895.6,286047003.1,N
1514881915.4,286047003.4,N
1514881935.3,286047004.1,N
1514881955.1,286047004.3,N
1514881975.9,286047005.1,N
1514881995.7,286047005.2,N
1514882015.6,286047005.1,N
1514882035.4,286047001.7,N
1514882055.2,286047002.0,N
1514882075.1,286047003.2,N
1514882076.0,286047003.2,N
1514882095.8,286047005.5,N
1514882115.7,286047001.9,N
1514882135.5,286047005.9,N
1514882155.3,286047005.8,N
1514882175.2,286047002.9,N
1514882195.0,286047002.0,N
1514882195.9,286047002.0,N
1514882215.8,286047000.2,N
1514882235.6,286047000.2,N
1514882255.4,286047002.4,N
1514882275.3,286047004.4,N
1514882295.1,286047000.6,N
1514882315.9,286046998.7,N
1514882335.7,286046999.5,N
1514882355.5,286047001.1,N
1514882375.4,286046998.4,N
1514882395.2,286047000.3,N
1514882415.1,286047004.0,N
1514882416.0,286047004.0,N
1514882435.8,286047002.3,N
1514882455.6,286047002.2,N
1514882475.5,286047003.2,N
1514882495.3,286047003.3,N
1514882515.2,286047001.4,N
1514882535.9,286047001.5,N
1514882555.7,286047002.9,N
1514882575.6,286047004.4,N
1514882595.4,286047001.8,N
1514882615.3,286047004.5,N
1514882635.1,286047003.7,N
1514882636.0,286047003.7,N
1514882655.8,286047003.2,N
1514882675.8,286047001.7,N
1514882695.6,286047003.2,N
1514882715.4,286047006.9,Y
1514882735.3,286047004.0,P
1514882755.1,286047001.0,N
1514882775.8,286047001.1,N
1514882795.7,286047000.8,N
1514882815.5,286047001.9,N
1514882835.4,286047002.5,N
1514882855.2,286047003.5,Y
1514882875.0,286046996.5,P
1514882875.9,286046996.5,N
1514882895.8,286046998.5,N
1514882915.6,286046998.9,N
1514882935.5,286046999.5,N
1514882955.3,286046997.6,N
1514882975.1,286046996.6,N
1514882995.9,286046999.2,N
1514883015.7,286047000.9,N
1514883035.5,286047002.0,N
1514883055.4,286047000.8,N
1514883075.2,286046997.4,N
1514883095.1,286046997.5,N
1514883096.0,286046997.5,N
1514883115.8,286046997.8,N
1514883135.6,286046996.5,N
1514883155.5,286046999.5,N
1514883175.3,286046997.4,N
1514883195.2,286046997.4,N
1514883215.9,286046997.4,N
1514883235.7,286046998.6,N
1514883255.6,286046999.6,N
1514883275.4,286046999.4,N
1514883295.2,286046998.6,N
1514883315.1,286046997.1,N
1514883316.0,286046997.1,N
1514883335.8,286046999.0,N
1514883355.7,286046996.9,N
1514883375.5,286046999.2,N
1514883395.3,286046996.8,N
1514883415.2,286046998.9,N
1514883435.0,286046998.6,N
1514883435.9,286046998.6,N
1514883455.8,286047002.4,N
1514883475.6,286046998.5,N
1514883495.4,286046999.5,N
1514883515.3,286046998.3,N
1514883535.1,286046998.4,N
1514883555.8,286047000.5,N
1514883575.7,286046999.3,N
1514883595.5,286046999.5,N
